Flag for Portugal Weather past 2 weeks in Lisbon, Portugal

Now
64 °F

Passing clouds.


Feels Like: 64 °F
Forecast: 62 / 82 °F
Wind: 13 mph from Northwest

Location: Lisbon Portela Airport

Current Time: Aug 30, 2014 at 11:44:00 PM

Latest Report: Aug 30, 2014 at 11:00 PM


Visibility: N/A

Pressure: 30.01 "Hg

Humidity: 88%

Dew point: 61 °F

Location of LisbonLocation

Historic Weather in Lisbon — Graph

°F

Lisbon temperature yesterday

Maximum temperature yesterday: 79 °F (at 2:00 PM)
Minimum temperature yesterday: 63 °F (at 5:00 AM)
Average temperature yesterday: 71 °F

Past Weeks' High & Low Weather Summary

 TemperatureHumidityPressure
High90 °F (Aug 17, 5:00 PM)94% (Aug 20, 6:00 AM)30.12 "Hg (Aug 20, 6:00 AM)
Low59 °F (Aug 25, 4:00 AM)25% (Aug 17, 6:30 PM)29.83 "Hg (Aug 17, 8:00 PM)
Average71 °F66%30.03 "Hg
* Reported Aug 15 10:00 PM — Aug 30 10:30 PM, Lisbon, Weather by CustomWeather, © 2014

Note: Actual official high and low records may vary slightly from our data, if they occured in-between our weather recording intervals... More about our weather records

Advertising

Lisbon weather history for previous 24 hours

 ConditionsComfort  
Time TempWeatherWind HumidityBarometerVisibility
10:30 PM
Aug 30
66 °FPassing clouds.9 mph78%30.01 "HgN/A
10:00 PM66 °FPassing clouds.10 mph78%30.01 "HgN/A
9:30 PM66 °FPassing clouds.7 mph78%30.01 "HgN/A
9:00 PM66 °FPassing clouds.14 mph78%30.01 "HgN/A
8:30 PM68 °FPassing clouds.10 mph73%30.01 "HgN/A
8:00 PM68 °FPassing clouds.12 mph69%30.01 "HgN/A
7:30 PM72 °FPassing clouds.12 mph61%30.01 "HgN/A
7:00 PM73 °FPassing clouds.10 mph53%30.01 "HgN/A
6:00 PM75 °FPassing clouds.12 mph50%30.01 "HgN/A
5:30 PM77 °FPassing clouds.13 mph44%30.01 "HgN/A
5:00 PM79 °FPassing clouds.12 mph42%30.01 "HgN/A
4:30 PM81 °FPassing clouds.12 mph37%30.01 "HgN/A
4:00 PM79 °FPassing clouds.9 mph39%30.01 "HgN/A
3:30 PM79 °FPassing clouds.12 mph42%30.01 "HgN/A
3:00 PM79 °FPassing clouds.10 mph45%30.01 "HgN/A
2:30 PM77 °FPassing clouds.12 mph47%30.01 "HgN/A
2:00 PM77 °FPassing clouds.10 mph47%30.04 "HgN/A
1:00 PM79 °FPassing clouds.9 mph37%30.04 "HgN/A
12:30 PM77 °FPassing clouds.9 mph47%30.04 "HgN/A
12:00 PM77 °FPassing clouds.8 mph51%30.04 "HgN/A
11:30 AM75 °FPassing clouds.8 mph54%30.04 "HgN/A
11:00 AM73 °FPassing clouds.10 mph61%30.04 "HgN/A
10:30 AM72 °FPassing clouds.9 mph65%30.04 "HgN/A
10:00 AM72 °FPassing clouds.12 mph65%30.04 "HgN/A
9:51 AM72 °FPassing clouds.13 mph65%30.04 "HgN/A
9:30 AM68 °FPassing clouds.10 mph73%30.04 "HgN/A
9:00 AM68 °FPassing clouds.13 mph73%30.04 "HgN/A
8:30 AM66 °FPassing clouds.7 mph83%30.04 "HgN/A
8:00 AM64 °FPassing clouds.7 mph83%30.04 "HgN/A
7:30 AM64 °FPassing clouds.6 mph83%30.04 "HgN/A
7:00 AM64 °FPassing clouds.5 mph83%30.01 "HgN/A
6:30 AM64 °FPassing clouds.14 mph83%30.01 "HgN/A
6:00 AM64 °FPassing clouds.13 mph83%30.01 "HgN/A
5:30 AM64 °FPassing clouds.9 mph83%30.01 "HgN/A
5:00 AM64 °FPassing clouds.9 mph83%30.01 "HgN/A
4:30 AM64 °FPassing clouds.12 mph78%30.01 "HgN/A
4:00 AM64 °FClear.12 mph78%30.01 "Hg10 mi
3:30 AM64 °FClear.13 mph78%30.04 "Hg10 mi
3:00 AM64 °FClear.13 mph73%30.04 "Hg10 mi
2:30 AM64 °FPassing clouds.12 mph78%30.04 "HgN/A
2:00 AM64 °FPassing clouds.13 mph78%30.04 "HgN/A
1:30 AM64 °FClear.16 mph78%30.04 "Hg10 mi
1:00 AM64 °FClear.16 mph78%30.04 "Hg10 mi
12:30 AM66 °FClear.18 mph73%30.04 "Hg10 mi
12:00 AM64 °FClear.13 mph78%30.04 "Hg10 mi
11:30 PM
Aug 29
66 °FClear.16 mph73%30.04 "Hg10 mi
11:00 PM66 °FPassing clouds.14 mph73%30.07 "HgN/A
Weather by CustomWeather, © 2014

See weather overviewHow to use our weather pages